Location: Gerlach
(40.6516°N, 119.3568°W)
Time: 14:28:02
(UTC-07:00)

A-11 Canister half - Pass Details

Date: 29 February 2024
Orbit: 1525 x 1683 km, 47.3° (Epoch: 21 April)

Event Time Altitude Azimuth Distance (km) Brightness Sun altitude
Rises 20:46:06 0° 256° (WSW) 4,785 12.3 -33.9°
Reaches altitude 10° 20:49:15 10° 259° (W) 3,780 11.6 -34.5°
Maximum altitude 20:58:46 68° 342° (NNW) 1,643 9.1 -36.1°
Enters shadow 21:00:10 61° 26° (NNE) 1,713 9.0 -36.4°
